Baker, MT

10:40 AM MDT on April 29, 2017 (GMT -0600)
Baker Municipal

Weather History for KBHK - August, 2012

Change the Weather History Date:

Friday, August 31, 2012

  Actual Average Record
Temperature  
Mean Temperature 73 °F -  
Max Temperature 84 °F 79 °F 97 °F (2007)
Min Temperature 63 °F 56 °F 46 °F (2005)
Cooling Degree Days 8    
Growing Degree Days 23 (Base 50)    
Moisture  
Dew Point 41 °F    
Average Humidity 35    
Maximum Humidity 75    
Minimum Humidity 18    
Precipitation  
Precipitation 0.05 in - - ()
Sea Level Pressure  
Sea Level Pressure 29.94 in    
Wind  
Wind Speed 18 mph (SE)    
Max Wind Speed 29 mph    
Max Gust Speed 36 mph    
Visibility 10 miles    
Events Rain    
Averages and records for this station are not official NWS values.
T = Trace of Precipitation, MM = Missing Value Source: NWS Daily Summary

Daily Weather History Graph

Daily Weather History Graph

Search for Another Location

Airport or City:

Trip Planner

Search our weather history database for the weather conditions in past years. The results will help you decide how hot, cold, wet, or windy it might be!

Date:

Astronomy

Aug. 31, 2012 Rise Set
Actual Time 6:16 AM MDT 7:36 PM MDT
Civil Twilight 5:45 AM MDT 8:07 PM MDT
Nautical Twilight 5:07 AM MDT 8:45 PM MDT
Astronomical Twilight 4:27 AM MDT 9:25 PM MDT
Moon 7:18 PM MDT (8/31) 6:28 AM MDT (8/31)
Length of Visible Light 14h 22m
Length of Day
13h 19m
Full, 100% of the Moon is Illuminated
Aug 31
Full
Sep 8
Last Quarter
Sep 15
New
Sep 22
First Quarter
Sep 29
Full

Hourly Weather History & Observations

Time (MDT) Temp. Dew Point Humidity Pressure Visibility Wind Dir Wind Speed Gust Speed Precip Events Conditions
12:51 AM 64.9 °F 37.0 °F 36% 29.97 in 10.0 mi SE 15.0 mph - N/A   Clear
1:51 AM 64.0 °F 37.0 °F 37% 29.98 in 10.0 mi SE 12.7 mph - N/A   Clear
2:51 AM 64.0 °F 37.0 °F 37% 29.96 in 10.0 mi ESE 12.7 mph - N/A   Clear
3:51 AM 64.0 °F 37.9 °F 38% 29.96 in 10.0 mi ESE 16.1 mph - N/A   Clear
4:51 AM 66.0 °F 37.9 °F 36% 29.96 in 10.0 mi SE 16.1 mph - 0.00 in   Scattered Clouds
5:51 AM 64.9 °F 39.9 °F 40% 29.99 in 10.0 mi East 8.1 mph - 0.00 in   Mostly Cloudy
6:51 AM 64.9 °F 39.9 °F 40% 30.00 in 10.0 mi ESE 13.8 mph - N/A   Clear
8:51 AM 66.9 °F 43.0 °F 42% 30.01 in 10.0 mi SE 24.2 mph 29.9 mph N/A   Clear
9:51 AM 73.0 °F 42.1 °F 33% 30.00 in 10.0 mi SE 26.5 mph 35.7 mph N/A   Clear
10:51 AM 73.0 °F 42.1 °F 33% 30.00 in 10.0 mi SE 28.8 mph 35.7 mph N/A   Clear
11:51 AM 73.9 °F 41.0 °F 30% 29.99 in 10.0 mi SE 26.5 mph 32.2 mph N/A   Clear
12:51 PM 75.9 °F 37.9 °F 25% 29.97 in 10.0 mi ESE 24.2 mph 34.5 mph N/A   Clear
1:51 PM 81.0 °F 34.0 °F 18% 29.93 in 10.0 mi SE 25.3 mph 34.5 mph N/A   Clear
2:51 PM 79.0 °F 35.1 °F 20% 29.91 in 10.0 mi ESE 25.3 mph 33.4 mph N/A   Clear
3:51 PM 82.9 °F 39.0 °F 21% 29.88 in 10.0 mi SE 25.3 mph 32.2 mph N/A   Clear
5:51 PM 82.9 °F 46.0 °F 27% 29.86 in 10.0 mi ESE 24.2 mph 29.9 mph N/A   Clear
6:51 PM 81.0 °F 46.9 °F 30% 29.86 in 10.0 mi SE 23.0 mph 32.2 mph N/A   Clear
7:51 PM 77.0 °F 41.0 °F 28% 29.86 in 10.0 mi SE 21.9 mph 29.9 mph N/A   Clear
8:51 PM 75.9 °F 39.9 °F 27% 29.88 in 10.0 mi SE 21.9 mph - N/A   Clear
9:51 PM 75.9 °F 45.0 °F 33% 29.88 in 10.0 mi SE 25.3 mph 32.2 mph 0.00 in Rain Light Rain
10:51 PM 66.0 °F 57.0 °F 73% 29.92 in 10.0 mi South 12.7 mph - 0.03 in Rain Light Rain
11:51 PM 63.0 °F 55.0 °F 75% 29.88 in 10.0 mi SE 11.5 mph - 0.02 in   Mostly Cloudy